Time,TemperatureF,DewpointF,PressureIn,WindDirection,WindDirectionDegrees,WindSpeedMPH,WindSpeedGustMPH,Humidity,HourlyPrecipIn,Conditions,Clouds,dailyrainin,SolarRadiationWatts/m^2,SoftwareType,DateUTC
2013-02-12 00:01:00,36.0,36.0,-100.00,WSW,243,14.0,21.0,100,0.00,,,0.00,0.000000,,2013-02-12 08:01:00,
2013-02-12 00:32:00,36.0,36.0,-100.00,WSW,243,14.0,21.0,100,0.00,,,0.00,0.000000,,2013-02-12 08:32:00,
2013-02-12 00:42:00,36.0,36.0,-100.00,WSW,243,14.0,21.0,100,0.00,,,0.00,0.000000,,2013-02-12 08:42:00,
2013-02-12 00:52:00,36.0,36.0,-100.00,WSW,243,14.0,21.0,100,0.00,,,0.00,0.000000,,2013-02-12 08:52:00,
2013-02-12 01:01:00,38.0,38.0,-100.00,WSW,255,11.0,21.0,100,0.00,,,0.00,0.000000,,2013-02-12 09:01:00,
2013-02-12 01:32:00,38.0,38.0,-100.00,WSW,255,11.0,21.0,100,0.00,,,0.00,0.000000,,2013-02-12 09:32:00,
2013-02-12 01:42:00,38.0,38.0,-100.00,WSW,255,11.0,21.0,100,0.00,,,0.00,0.000000,,2013-02-12 09:42:00,
2013-02-12 01:52:00,38.0,38.0,-100.00,WSW,255,11.0,21.0,100,0.00,,,0.00,0.000000,,2013-02-12 09:52:00,
2013-02-12 02:01:00,38.0,38.0,-100.00,WSW,244,11.0,18.0,100,0.00,,,0.00,0.000000,,2013-02-12 10:01:00,
2013-02-12 02:22:00,38.0,38.0,-100.00,WSW,244,11.0,18.0,100,0.00,,,0.00,0.000000,,2013-02-12 10:22:00,
2013-02-12 02:32:00,38.0,38.0,-100.00,WSW,244,11.0,18.0,100,0.00,,,0.00,0.000000,,2013-02-12 10:32:00,
2013-02-12 02:43:00,38.0,38.0,-100.00,WSW,244,11.0,18.0,100,0.00,,,0.00,0.000000,,2013-02-12 10:43:00,
2013-02-12 02:52:00,38.0,38.0,-100.00,WSW,244,11.0,18.0,100,0.00,,,0.00,0.000000,,2013-02-12 10:52:00,
2013-02-12 03:01:00,38.0,38.0,-100.00,WSW,237,16.0,21.0,100,0.00,,,0.00,0.000000,,2013-02-12 11:01:00,
2013-02-12 03:32:00,38.0,38.0,-100.00,WSW,237,16.0,21.0,100,0.00,,,0.00,0.000000,,2013-02-12 11:32:00,
2013-02-12 03:42:00,38.0,38.0,-100.00,WSW,237,16.0,21.0,100,0.00,,,0.00,0.000000,,2013-02-12 11:42:00,
2013-02-12 03:52:00,38.0,38.0,-100.00,WSW,237,16.0,21.0,100,0.00,,,0.00,0.000000,,2013-02-12 11:52:00,
2013-02-12 04:01:00,38.0,38.0,-100.00,WSW,240,18.0,23.0,100,0.00,,,0.00,0.000000,,2013-02-12 12:01:00,
2013-02-12 04:32:00,38.0,38.0,-100.00,WSW,240,18.0,23.0,100,0.00,,,0.00,0.000000,,2013-02-12 12:32:00,
2013-02-12 04:42:00,38.0,38.0,-100.00,WSW,240,18.0,23.0,100,0.00,,,0.00,0.000000,,2013-02-12 12:42:00,
2013-02-12 04:52:00,38.0,38.0,-100.00,WSW,240,18.0,23.0,100,0.00,,,0.00,0.000000,,2013-02-12 12:52:00,
2013-02-12 05:01:00,38.0,38.0,-100.00,WSW,241,19.0,24.0,100,0.00,,,-99.99,0.000000,,2013-02-12 13:01:00,
2013-02-12 05:22:00,38.0,38.0,-100.00,WSW,241,19.0,24.0,100,0.00,,,-99.99,0.000000,,2013-02-12 13:22:00,
2013-02-12 05:32:00,38.0,38.0,-100.00,WSW,241,19.0,24.0,100,0.00,,,-99.99,0.000000,,2013-02-12 13:32:00,
2013-02-12 05:42:00,38.0,38.0,-100.00,WSW,241,19.0,24.0,100,0.00,,,-99.99,0.000000,,2013-02-12 13:42:00,
2013-02-12 05:52:00,38.0,38.0,-100.00,WSW,241,19.0,24.0,100,0.00,,,-99.99,0.000000,,2013-02-12 13:52:00,
2013-02-12 06:01:00,38.0,38.0,-100.00,WSW,243,15.0,24.0,100,0.00,,,0.00,0.000000,,2013-02-12 14:01:00,
2013-02-12 06:32:00,38.0,38.0,-100.00,WSW,243,15.0,24.0,100,0.00,,,0.00,0.000000,,2013-02-12 14:32:00,
2013-02-12 06:42:00,38.0,38.0,-100.00,WSW,243,15.0,24.0,100,0.00,,,0.00,0.000000,,2013-02-12 14:42:00,
2013-02-12 06:52:00,38.0,38.0,-100.00,WSW,243,15.0,24.0,100,0.00,,,0.00,0.000000,,2013-02-12 14:52:00,
2013-02-12 07:01:00,37.0,37.0,-100.00,WSW,241,15.0,23.0,100,0.00,,,0.00,0.000000,,2013-02-12 15:01:00,
2013-02-12 07:32:00,37.0,37.0,-100.00,WSW,241,15.0,23.0,100,0.00,,,0.00,0.000000,,2013-02-12 15:32:00,
2013-02-12 07:42:00,37.0,37.0,-100.00,WSW,241,15.0,23.0,100,0.00,,,0.00,0.000000,,2013-02-12 15:42:00,
2013-02-12 07:52:00,37.0,37.0,-100.00,WSW,241,15.0,23.0,100,0.00,,,0.00,0.000000,,2013-02-12 15:52:00,
2013-02-12 08:01:00,39.0,39.0,-100.00,WSW,243,14.0,21.0,100,0.00,,,0.00,0.000000,,2013-02-12 16:01:00,
2013-02-12 08:22:00,39.0,39.0,-100.00,WSW,243,14.0,21.0,100,0.00,,,0.00,0.000000,,2013-02-12 16:22:00,
2013-02-12 08:32:00,39.0,39.0,-100.00,WSW,243,14.0,21.0,100,0.00,,,0.00,0.000000,,2013-02-12 16:32:00,
2013-02-12 08:42:00,39.0,39.0,-100.00,WSW,243,14.0,21.0,100,0.00,,,0.00,0.000000,,2013-02-12 16:42:00,
2013-02-12 08:52:00,39.0,39.0,-100.00,WSW,243,14.0,21.0,100,0.00,,,0.00,0.000000,,2013-02-12 16:52:00,
2013-02-12 09:01:00,37.0,37.0,-100.00,SW,229,15.0,20.0,100,0.00,,,0.00,16.000000,,2013-02-12 17:01:00,
2013-02-12 09:32:00,37.0,37.0,-100.00,SW,229,15.0,20.0,100,0.00,,,0.00,16.000000,,2013-02-12 17:32:00,
2013-02-12 09:42:00,37.0,37.0,-100.00,SW,229,15.0,20.0,100,0.00,,,0.00,16.000000,,2013-02-12 17:42:00,
2013-02-12 09:52:00,37.0,37.0,-100.00,SW,229,15.0,20.0,100,0.00,,,0.00,16.000000,,2013-02-12 17:52:00,
2013-02-12 10:01:00,39.0,39.0,-100.00,WSW,251,15.0,22.0,100,0.00,,,0.00,69.000000,,2013-02-12 18:01:00,
2013-02-12 10:32:00,39.0,39.0,-100.00,WSW,251,15.0,22.0,100,0.00,,,0.00,69.000000,,2013-02-12 18:32:00,
2013-02-12 10:42:00,39.0,39.0,-100.00,WSW,251,15.0,22.0,100,0.00,,,0.00,69.000000,,2013-02-12 18:42:00,
2013-02-12 10:52:00,39.0,39.0,-100.00,WSW,251,15.0,22.0,100,0.00,,,0.00,69.000000,,2013-02-12 18:52:00,
2013-02-12 11:01:00,38.0,38.0,-100.00,WSW,253,16.0,23.0,100,0.00,,,0.00,131.000000,,2013-02-12 19:01:00,
2013-02-12 11:32:00,38.0,38.0,-100.00,WSW,253,16.0,23.0,100,0.00,,,0.00,131.000000,,2013-02-12 19:32:00,
2013-02-12 11:42:00,38.0,38.0,-100.00,WSW,253,16.0,23.0,100,0.00,,,0.00,131.000000,,2013-02-12 19:42:00,
2013-02-12 11:52:00,38.0,38.0,-100.00,WSW,253,16.0,23.0,100,0.00,,,0.00,131.000000,,2013-02-12 19:52:00,
2013-02-12 13:01:00,38.0,38.0,-100.00,WSW,243,15.0,23.0,100,-99.99,,,-99.99,151.000000,,2013-02-12 21:01:00,
2013-02-12 13:32:00,38.0,38.0,-100.00,WSW,243,15.0,23.0,100,-99.99,,,-99.99,151.000000,,2013-02-12 21:32:00,
2013-02-12 13:42:00,38.0,38.0,-100.00,WSW,243,15.0,23.0,100,-99.99,,,-99.99,151.000000,,2013-02-12 21:42:00,
2013-02-12 13:52:00,38.0,38.0,-100.00,WSW,243,15.0,23.0,100,-99.99,,,-99.99,151.000000,,2013-02-12 21:52:00,
2013-02-12 14:01:00,38.0,38.0,-100.00,SW,229,14.0,23.0,100,0.00,,,-99.99,162.000000,,2013-02-12 22:01:00,
2013-02-12 14:22:00,38.0,38.0,-100.00,SW,229,14.0,23.0,100,0.00,,,-99.99,162.000000,,2013-02-12 22:22:00,
2013-02-12 14:32:00,38.0,38.0,-100.00,SW,229,14.0,23.0,100,0.00,,,-99.99,162.000000,,2013-02-12 22:32:00,
2013-02-12 14:42:00,38.0,38.0,-100.00,SW,229,14.0,23.0,100,0.00,,,-99.99,162.000000,,2013-02-12 22:42:00,
2013-02-12 14:52:00,38.0,38.0,-100.00,SW,229,14.0,23.0,100,0.00,,,-99.99,162.000000,,2013-02-12 22:52:00,
2013-02-12 15:01:00,40.0,40.0,-100.00,SW,232,12.0,23.0,100,0.01,,,0.01,158.000000,,2013-02-12 23:01:00,
2013-02-12 15:32:00,40.0,40.0,-100.00,SW,232,12.0,23.0,100,0.01,,,0.01,158.000000,,2013-02-12 23:32:00,
2013-02-12 15:42:00,40.0,40.0,-100.00,SW,232,12.0,23.0,100,0.01,,,0.01,158.000000,,2013-02-12 23:42:00,
2013-02-12 15:52:00,40.0,40.0,-100.00,SW,232,12.0,23.0,100,0.01,,,0.01,158.000000,,2013-02-12 23:52:00,
2013-02-12 16:01:00,40.0,40.0,-100.00,SW,227,13.0,22.0,100,0.00,,,0.01,107.000000,,2013-02-13 00:01:00,
2013-02-12 16:32:00,40.0,40.0,-100.00,SW,227,13.0,22.0,100,0.00,,,0.01,107.000000,,2013-02-13 00:32:00,
2013-02-12 16:42:00,40.0,40.0,-100.00,SW,227,13.0,22.0,100,0.00,,,0.01,107.000000,,2013-02-13 00:42:00,
2013-02-12 16:52:00,40.0,40.0,-100.00,SW,227,13.0,22.0,100,0.00,,,0.01,107.000000,,2013-02-13 00:52:00,
2013-02-12 17:01:00,39.0,39.0,-100.00,SSW,210,15.0,23.0,100,0.01,,,0.02,98.000000,,2013-02-13 01:01:00,
2013-02-12 17:42:00,39.0,39.0,-100.00,SSW,210,15.0,23.0,100,0.01,,,0.02,98.000000,,2013-02-13 01:42:00,
2013-02-12 17:52:00,39.0,39.0,-100.00,SSW,210,15.0,23.0,100,0.01,,,0.02,98.000000,,2013-02-13 01:52:00,
2013-02-12 18:01:00,39.0,39.0,-100.00,SW,218,13.0,23.0,100,0.01,,,0.03,37.000000,,2013-02-13 02:01:00,
2013-02-12 18:42:00,39.0,39.0,-100.00,SW,218,13.0,23.0,100,0.01,,,0.03,37.000000,,2013-02-13 02:42:00,
2013-02-12 18:52:00,39.0,39.0,-100.00,SW,218,13.0,23.0,100,0.01,,,0.03,37.000000,,2013-02-13 02:52:00,
2013-02-12 19:01:00,39.0,39.0,-100.00,WSW,249,16.0,24.0,100,0.00,,,0.03,3.000000,,2013-02-13 03:01:00,
2013-02-12 19:32:00,39.0,39.0,-100.00,WSW,249,16.0,24.0,100,0.00,,,0.03,3.000000,,2013-02-13 03:32:00,
2013-02-12 19:42:00,39.0,39.0,-100.00,WSW,249,16.0,24.0,100,0.00,,,0.03,3.000000,,2013-02-13 03:42:00,
2013-02-12 19:52:00,39.0,39.0,-100.00,WSW,249,16.0,24.0,100,0.00,,,0.03,3.000000,,2013-02-13 03:52:00,
2013-02-12 20:01:00,38.0,38.0,-100.00,WSW,242,17.0,23.0,100,0.01,,,0.04,0.000000,,2013-02-13 04:01:00,
2013-02-12 20:32:00,38.0,38.0,-100.00,WSW,242,17.0,23.0,100,0.01,,,0.04,0.000000,,2013-02-13 04:32:00,
2013-02-12 20:42:00,38.0,38.0,-100.00,WSW,242,17.0,23.0,100,0.01,,,0.04,0.000000,,2013-02-13 04:42:00,
2013-02-12 20:52:00,38.0,38.0,-100.00,WSW,242,17.0,23.0,100,0.01,,,0.04,0.000000,,2013-02-13 04:52:00,
2013-02-12 21:01:00,39.0,39.0,-100.00,WSW,241,16.0,24.0,100,0.00,,,0.04,0.000000,,2013-02-13 05:01:00,
2013-02-12 21:32:00,39.0,39.0,-100.00,WSW,241,16.0,24.0,100,0.00,,,0.04,0.000000,,2013-02-13 05:32:00,
2013-02-12 21:42:00,39.0,39.0,-100.00,WSW,241,16.0,24.0,100,0.00,,,0.04,0.000000,,2013-02-13 05:42:00,
2013-02-12 21:52:00,39.0,39.0,-100.00,WSW,241,16.0,24.0,100,0.00,,,0.04,0.000000,,2013-02-13 05:52:00,
2013-02-12 22:01:00,39.0,39.0,-100.00,SW,233,17.0,24.0,100,0.00,,,0.04,0.000000,,2013-02-13 06:01:00,
2013-02-12 22:22:00,39.0,39.0,-100.00,SW,233,17.0,24.0,100,0.00,,,0.04,0.000000,,2013-02-13 06:22:00,
2013-02-12 22:32:00,39.0,39.0,-100.00,SW,233,17.0,24.0,100,0.00,,,0.04,0.000000,,2013-02-13 06:32:00,
2013-02-12 22:42:00,39.0,39.0,-100.00,SW,233,17.0,24.0,100,0.00,,,0.04,0.000000,,2013-02-13 06:42:00,
2013-02-12 22:52:00,39.0,39.0,-100.00,SW,233,17.0,24.0,100,0.00,,,0.04,0.000000,,2013-02-13 06:52:00,
2013-02-12 23:01:00,38.0,38.0,-100.00,WSW,237,17.0,24.0,100,0.01,,,0.05,0.000000,,2013-02-13 07:01:00,
2013-02-12 23:32:00,38.0,38.0,-100.00,WSW,237,17.0,24.0,100,0.01,,,0.05,0.000000,,2013-02-13 07:32:00,
2013-02-12 23:42:00,38.0,38.0,-100.00,WSW,237,17.0,24.0,100,0.01,,,0.05,0.000000,,2013-02-13 07:42:00,
2013-02-12 23:52:00,38.0,38.0,-100.00,WSW,237,17.0,24.0,100,0.01,,,0.05,0.000000,,2013-02-13 07:52:00,